Fort Morgan, CO

1:47 AM MDT on October 24, 2017 (GMT -0600)
Fort Morgan

Weather History for KFMM - December, 2012

Change the Weather History Date:

Saturday, December 1, 2012

  Actual Average (KAKO) Record (KAKO)
Temperature  
Mean Temperature 46 °F -  
Max Temperature 64 °F 40 °F 70 °F (1998)
Min Temperature 29 °F 15 °F -14 °F (1985)
Degree Days  
Heating Degree Days 18    
Moisture  
Dew Point 25 °F    
Average Humidity 50    
Maximum Humidity 75    
Minimum Humidity 23    
Precipitation  
Precipitation 0.00 in - - ()
Sea Level Pressure  
Sea Level Pressure 29.93 in    
Wind  
Wind Speed 6 mph ()    
Max Wind Speed 13 mph    
Max Gust Speed -    
Visibility 10.0 miles    
Events      
Averages and records for this station are not official NWS values.
T = Trace of Precipitation, MM = Missing Value Source: Averaged Metar Reports

Daily Weather History Graph

Daily Weather History Graph

Search for Another Location

Airport or City:

Trip Planner

Search our weather history database for the weather conditions in past years. The results will help you decide how hot, cold, wet, or windy it might be!

Date:

Astronomy

Dec. 01, 2012 Rise Set
Actual Time 6:59 AM MST 4:29 PM MST
Civil Twilight 6:29 AM MST 4:59 PM MST
Nautical Twilight 5:55 AM MST 5:33 PM MST
Astronomical Twilight 5:22 AM MST 6:06 PM MST
Moon 7:21 PM MST (12/1) 9:13 AM MST (12/1)
Length of Visible Light 10h 30m
Length of Day
9h 30m
Waning Gibbous, 91% of the Moon is Illuminated
Dec 1
Waning Gibbous
Dec 6
Last Quarter
Dec 13
New
Dec 19
First Quarter
Dec 28
Full

Hourly Weather History & Observations

Time (MST) Temp. Windchill Dew Point Humidity Pressure Visibility Wind Dir Wind Speed Gust Speed Precip Events Conditions
12:15 AM 32.7 °F 25.0 °F 22.1 °F 65% 29.83 in 10.0 mi WNW 9.2 mph - N/A   Clear
12:35 AM 35.6 °F 28.6 °F 21.9 °F 58% 29.82 in 10.0 mi NW 9.2 mph - N/A   Clear
12:55 AM 33.4 °F 29.1 °F 21.6 °F 62% 29.82 in 10.0 mi NW 4.6 mph - N/A   Clear
1:15 AM 37.2 °F 31.2 °F 21.2 °F 52% 29.82 in 10.0 mi NW 8.1 mph - N/A   Clear
2:15 AM 30.0 °F 21.7 °F 21.9 °F 72% 29.83 in 10.0 mi West 9.2 mph - N/A   Clear
2:35 AM 30.0 °F 25.2 °F 22.1 °F 72% 29.84 in 10.0 mi SW 4.6 mph - N/A   Clear
3:15 AM 30.9 °F 24.3 °F 22.5 °F 71% 29.85 in 10.0 mi SW 6.9 mph - N/A   Clear
3:35 AM 29.5 °F 21.8 °F 22.5 °F 75% 29.85 in 10.0 mi WNW 8.1 mph - N/A   Clear
3:55 AM 30.6 °F 22.4 °F 23.0 °F 74% 29.85 in 10.0 mi WNW 9.2 mph - N/A   Clear
4:15 AM 31.1 °F 27.7 °F 22.8 °F 71% 29.85 in 10.0 mi West 3.5 mph - N/A   Clear
4:35 AM 31.1 °F 23.1 °F 22.8 °F 71% 29.86 in 10.0 mi West 9.2 mph - N/A   Clear
4:55 AM 32.2 °F 25.8 °F 23.7 °F 71% 29.86 in 10.0 mi West 6.9 mph - N/A   Clear
5:15 AM 32.7 °F 24.5 °F 24.3 °F 71% 29.87 in 10.0 mi West 10.4 mph - N/A   Clear
5:35 AM 32.9 °F 24.7 °F 24.3 °F 71% 29.88 in 10.0 mi West 10.4 mph - N/A   Clear
5:55 AM 32.0 °F 22.5 °F 23.7 °F 71% 29.89 in 10.0 mi West 12.7 mph - N/A   Clear
6:15 AM 32.0 °F 23.0 °F 23.9 °F 72% 29.90 in 10.0 mi West 11.5 mph - N/A   Clear
6:35 AM 31.3 °F 22.1 °F 24.3 °F 75% 29.91 in 10.0 mi West 11.5 mph - N/A   Clear
6:55 AM 31.3 °F 22.1 °F 24.3 °F 75% 29.92 in 10.0 mi West 11.5 mph - N/A   Clear
7:15 AM 31.1 °F 23.7 °F 23.9 °F 75% 29.92 in 10.0 mi West 8.1 mph - N/A   Clear
7:35 AM 32.0 °F 24.2 °F 24.6 °F 74% 29.93 in 10.0 mi West 9.2 mph - N/A   Clear
7:55 AM 33.8 °F 24.8 °F 25.3 °F 71% 29.93 in 10.0 mi West 12.7 mph - N/A   Clear
8:15 AM 37.0 °F 29.3 °F 25.7 °F 64% 29.93 in 10.0 mi West 11.5 mph - N/A   Clear
8:35 AM 38.5 °F 32.1 °F 26.1 °F 61% 29.93 in 10.0 mi West 9.2 mph - N/A   Clear
8:55 AM 44.1 °F 38.1 °F 25.7 °F 49% 29.93 in 10.0 mi West 11.5 mph - N/A   Clear
9:15 AM 46.6 °F - 24.8 °F 43% 29.94 in 10.0 mi West 8.1 mph - N/A   Clear
9:35 AM 50.4 °F - 23.5 °F 35% 29.94 in 10.0 mi West 9.2 mph - N/A   Clear
9:55 AM 51.4 °F - 23.5 °F 34% 29.95 in 10.0 mi West 5.8 mph - N/A   Clear
10:15 AM 54.0 °F - 23.9 °F 31% 29.94 in 10.0 mi SW 3.5 mph - N/A   Clear
10:35 AM 55.9 °F - 24.4 °F 30% 29.94 in 10.0 mi WSW 4.6 mph - N/A   Clear
10:55 AM 57.6 °F - 25.5 °F 29% 29.93 in 10.0 mi WSW 4.6 mph - N/A   Clear
11:15 AM 57.2 °F - 26.1 °F 30% 29.93 in 10.0 mi SSW 6.9 mph - N/A   Clear
11:35 AM 56.7 °F - 27.1 °F 32% 29.94 in 10.0 mi Calm Calm - N/A   Clear
11:55 AM 57.6 °F - 27.1 °F 31% 29.93 in 10.0 mi SW 4.6 mph - N/A   Clear
12:15 PM 58.3 °F - 26.4 °F 30% 29.92 in 10.0 mi South 4.6 mph - N/A   Clear
12:35 PM 60.4 °F - 26.6 °F 28% 29.92 in 10.0 mi WSW 5.8 mph - N/A   Clear
12:55 PM 63.0 °F - 26.6 °F 25% 29.92 in 10.0 mi West 6.9 mph - N/A   Clear
1:15 PM 62.2 °F - 26.8 °F 26% 29.92 in 10.0 mi WSW 8.1 mph - N/A   Clear
1:35 PM 64.4 °F - 26.6 °F 24% 29.92 in 10.0 mi WSW 9.2 mph - N/A   Clear
1:55 PM 64.6 °F - 27.0 °F 24% 29.92 in 10.0 mi WSW 6.9 mph - N/A   Clear
2:15 PM 64.6 °F - 26.1 °F 23% 29.92 in 10.0 mi West 5.8 mph - N/A   Clear
2:35 PM 62.6 °F - 26.6 °F 26% 29.92 in 10.0 mi WSW 5.8 mph - N/A   Clear
2:55 PM 59.9 °F - 26.6 °F 28% 29.92 in 10.0 mi SW 4.6 mph - N/A   Clear
3:15 PM 58.1 °F - 26.4 °F 30% 29.93 in 10.0 mi SW 4.6 mph - N/A   Clear
3:35 PM 55.4 °F - 26.1 °F 32% 29.94 in 10.0 mi SSW 4.6 mph - N/A   Clear
3:55 PM 55.4 °F - 26.1 °F 32% 29.94 in 10.0 mi South 3.5 mph - N/A   Clear
4:15 PM 55.0 °F - 26.2 °F 33% 29.94 in 10.0 mi Calm Calm - N/A   Clear
4:35 PM 54.0 °F - 26.1 °F 34% 29.95 in 10.0 mi Calm Calm - N/A   Clear
4:55 PM 54.5 °F - 25.5 °F 33% 29.95 in 10.0 mi Calm Calm - N/A   Clear
5:15 PM 51.6 °F - 24.3 °F 34% 29.96 in 10.0 mi Calm Calm - N/A   Clear
5:35 PM 48.6 °F - 24.4 °F 39% 29.96 in 10.0 mi Calm Calm - N/A   Clear
5:55 PM 52.2 °F - 25.3 °F 35% 29.96 in 10.0 mi North 3.5 mph - N/A   Clear
6:15 PM 45.9 °F - 26.1 °F 46% 29.97 in 10.0 mi Calm Calm - N/A   Clear
6:35 PM 46.0 °F - 25.5 °F 45% 29.98 in 10.0 mi Calm Calm - N/A   Clear
6:55 PM 48.0 °F - 25.2 °F 41% 29.99 in 10.0 mi Calm Calm - N/A   Clear
7:15 PM 45.5 °F 42.5 °F 25.7 °F 46% 30.00 in 10.0 mi SSE 5.8 mph - N/A   Clear
7:35 PM 42.6 °F 37.2 °F 25.3 °F 51% 30.00 in 10.0 mi NNE 9.2 mph - N/A   Clear
7:55 PM 39.9 °F 35.1 °F 26.2 °F 58% 30.00 in 10.0 mi NE 6.9 mph - N/A   Clear
8:15 PM 43.9 °F 40.5 °F 25.7 °F 49% 30.00 in 10.0 mi East 5.8 mph - N/A   Clear
8:35 PM 37.8 °F 35.3 °F 25.7 °F 62% 30.00 in 10.0 mi East 3.5 mph - N/A   Clear
8:55 PM 38.1 °F 32.9 °F 25.7 °F 61% 30.01 in 10.0 mi NE 6.9 mph - N/A   Clear
9:15 PM 42.3 °F - 25.7 °F 52% 30.00 in 10.0 mi Calm Calm - N/A   Clear
9:35 PM 39.0 °F 34.0 °F 25.5 °F 58% 30.01 in 10.0 mi NE 6.9 mph - N/A   Clear
9:55 PM 40.1 °F - 25.7 °F 56% 30.00 in 10.0 mi Calm Calm - N/A   Clear
10:15 PM 35.1 °F 32.2 °F 24.6 °F 66% 30.01 in 10.0 mi South 3.5 mph - N/A   Clear
10:35 PM 34.7 °F - 25.0 °F 68% 30.01 in 10.0 mi Calm Calm - N/A   Clear
10:55 PM 36.5 °F - 25.7 °F 65% 30.00 in 10.0 mi Calm Calm - N/A   Clear
11:15 PM 36.5 °F - 25.7 °F 65% 30.00 in 10.0 mi Calm Calm - N/A   Clear
11:35 PM 38.5 °F - 25.9 °F 61% 30.00 in 10.0 mi Calm Calm - N/A   Clear